Flag for Germany Weather past 2 weeks in Varel, Lower Saxony, Germany

Now
39 °F

Fog.


Feels Like: 31 °F
Forecast: 34 / 38 °F
Wind: 14 mph from Southwest

Location: Wittmundhaven

Current Time: Jan 28, 2015 at 5:45:23 AM

Latest Report: Jan 28, 2015 at 4:20 AM


Visibility: 3 mi

Pressure: 29.89 "Hg

Humidity: 93%

Dew point: 37 °F

Location of VarelLocation

Historic Weather in Varel — Graph

°F

Varel temperature yesterday

Maximum temperature yesterday: 45 °F (at 1:20 PM)
Minimum temperature yesterday: 37 °F (at 1:20 AM)
Average temperature yesterday: 40 °F

Past Weeks' High & Low Weather Summary

 TemperatureHumidityPressure
High48 °F (Jan 13, 5:20 AM)100% (Jan 13, 8:20 AM)30.33 "Hg (Jan 13, 8:20 AM)
Low19 °F (Jan 23, 5:20 AM)70% (Jan 17, 3:20 PM)29.27 "Hg (Jan 15, 2:20 PM)
Average36 °F91%29.90 "Hg
* Reported Jan 13 4:20 AM — Jan 28 4:20 AM, Varel, Weather by CustomWeather, © 2014

Note: Actual official high and low records may vary slightly from our data, if they occured in-between our weather recording intervals... More about our weather records

Advertising

Varel weather history for previous 24 hours

 ConditionsComfort  
Time TempWeatherWind HumidityBarometerVisibility
4:20 AM
Jan 28
39 °FFog.14 mph93%29.89 "Hg3 mi
3:20 AM39 °FFog.13 mph93%29.95 "Hg3 mi
2:49 AM39 °FFog.12 mph93%29.95 "Hg3 mi
2:20 AM37 °FDrizzle. Fog.12 mph100%29.98 "Hg3 mi
1:20 AM37 °FPassing clouds.9 mph93%30.01 "Hg5 mi
12:20 AM37 °FPassing clouds.10 mph100%30.04 "Hg4 mi
11:20 PM
Jan 27
37 °FFog.8 mph100%30.07 "Hg3 mi
10:20 PM39 °FFog.8 mph93%30.07 "Hg2 mi
9:48 PM39 °FFog.8 mph93%30.07 "Hg2 mi
9:20 PM39 °FPassing clouds.7 mph93%30.09 "Hg4 mi
8:20 PM39 °FPassing clouds.6 mph93%30.09 "HgN/A
7:20 PM39 °FPassing clouds.8 mph93%30.09 "HgN/A
5:20 PM41 °FPassing clouds.5 mph93%30.09 "HgN/A
4:20 PM43 °FScattered clouds.13 mph87%30.09 "HgN/A
3:20 PM43 °FScattered clouds.12 mph87%30.09 "HgN/A
2:20 PM43 °FScattered clouds.14 mph87%30.09 "HgN/A
1:20 PM45 °FScattered clouds.15 mph81%30.09 "HgN/A
12:20 PM43 °FPartly sunny.13 mph87%30.09 "HgN/A
11:20 AM41 °FBroken clouds.8 mph87%30.09 "HgN/A
10:20 AM41 °FScattered clouds.8 mph87%30.07 "HgN/A
9:20 AM39 °FPassing clouds.10 mph87%30.07 "HgN/A
8:20 AM37 °FPassing clouds.9 mph93%30.07 "HgN/A
7:20 AM39 °FPassing clouds.9 mph87%30.04 "HgN/A
6:20 AM39 °FPassing clouds.9 mph81%30.04 "HgN/A
5:20 AM39 °FPassing clouds.10 mph81%30.04 "HgN/A
Weather by CustomWeather, © 2014

See weather overviewHow to use our weather pages